Location: Harbor View
(36.2448°N, 86.5797°W)
Time: 07:43:16
(UTC+00:00)

COSMO-SKYMED 1 - Pass Details

Date: 09 March 2021
Orbit: 621 x 623 km, 97.9° (Epoch: 13 April)

Event Time Altitude Azimuth Distance (km) Brightness Sun altitude
Rises 11:00:39 0° 165° (SSE) 2,889 6.1 -13.9°
Reaches altitude 10° 11:02:50 10° 165° (SSE) 1,986 5.3 -13.4°
Maximum altitude 11:07:09 86° 78° (ENE) 630 2.6 -12.6°
Drops below altitude 10° 11:11:31 10° 349° (N) 2,000 5.1 -11.7°
Sets 11:13:43 0° 349° (N) 2,911 5.9 -11.2°
